EW6143 Weather Reports


Display with metric or nautical units.
time (UTC)temp
F
wind
direction
speed
MPH
gust
MPH
rain 1hr
in
rain 24hr
in
rain mn
in
humidity
%
barometer
mb
20260505173026 81 18 7.0 18.0 0.00 0.00 0.00 67 1005.4
20260505171528 80 360 9.0 19.0 0.00 0.00 0.00 67 1005.5
20260505170027 80 269 8.0 15.0 0.00 0.00 0.00 68 1005.4
20260505164536 80 340 8.0 18.0 0.00 0.00 0.00 68 1005.3
20260505163034 80 348 8.0 20.0 0.00 0.00 0.00 68 1005.2
20260505161528 79 313 6.0 15.0 0.00 0.00 0.00 70 1005.3
20260505153034 76 9 8.0 17.0 0.00 0.00 0.00 74 1005.2
20260505151530 76 303 5.0 14.0 0.00 0.00 0.00 76 1005.3
20260505124529 71 294 4.0 15.0 0.00 0.00 0.00 80 1005.0
20260505123025 71 310 7.0 13.0 0.00 0.00 0.00 80 1004.4
20260505121532 71 321 5.0 13.0 0.00 0.00 0.00 80 1004.5
20260505120039 71 270 6.0 13.0 0.00 0.00 0.00 80 1004.3
20260505114527 71 5 6.0 11.0 0.00 0.00 0.00 80 1004.3
20260505113029 71 344 7.0 17.0 0.00 0.00 0.00 80 1004.0
20260505111532 71 328 6.0 14.0 0.00 0.00 0.00 80 1004.0
20260505091532 71 337 5.0 14.0 0.00 0.00 0.00 80 1004.7
20260505090027 71 331 6.0 17.0 0.00 0.00 0.00 80 1004.4
20260505084543 71 327 9.0 18.0 0.00 0.00 0.00 80 1004.4
20260505083043 71 355 5.0 17.0 0.00 0.00 0.00 80 1004.5
20260505081530 71 342 6.0 17.0 0.00 0.00 0.00 79 1004.5
20260505080039 71 302 8.0 18.0 0.00 0.00 0.00 79 1004.7
20260505074527 71 308 7.0 12.0 0.00 0.00 0.00 78 1005.0
20260505073036 71 355 6.0 16.0 0.00 0.00 0.00 78 1005.2
20260505071541 72 320 6.0 15.0 0.00 0.00 0.00 77 1005.4
20260505070039 72 321 7.0 17.0 0.00 0.00 0.00 77 1005.6
20260505064528 72 309 8.0 15.0 0.00 0.00 0.00 76 1005.9
20260505063037 72 299 4.0 12.0 0.00 0.00 0.00 76 1005.7
20260505061530 72 313 4.0 14.0 0.00 0.00 0.00 76 1006.0
20260505060050 72 348 7.0 12.0 0.00 0.00 0.00 75 1006.1
20260505054526 72 331 6.0 17.0 0.00 0.00 0.00 75 1006.0
20260505053027 72 344 5.0 13.0 0.00 0.00 0.00 74 1006.3
20260505051528 72 315 5.0 11.0 0.00 0.00 0.00 74 1006.3
20260505041537 72 278 5.0 13.0 0.00 0.00 0.00 73 1006.6
20260505040033 72 333 6.0 14.0 0.00 0.00 0.00 72 1006.7
20260505034529 73 350 6.0 13.0 0.00 0.00 0.00 71 1006.6
20260505033027 73 360 5.0 10.0 0.00 0.00 0.00 71 1006.7
20260505031526 73 292 5.0 11.0 0.00 0.00 0.00 70 1006.7
20260505030028 73 320 6.0 13.0 0.00 0.00 0.00 70 1006.8
20260505024527 74 301 4.0 10.0 0.00 0.00 0.00 69 1006.8
20260505023027 74 329 4.0 12.0 0.00 0.00 0.00 69 1006.4
20260505021530 74 287 5.0 10.0 0.00 0.00 0.00 68 1006.3
20260505020035 75 311 4.0 9.0 0.00 0.00 0.00 66 1006.3
20260505014538 75 299 5.0 12.0 0.00 0.00 0.00 65 1006.4
20260505013037 76 355 5.0 11.0 0.00 0.00 0.00 65 1006.4
20260505011535 76 338 4.0 12.0 0.00 0.00 0.00 64 1006.3
20260505010026 76 302 5.0 13.0 0.00 0.00 0.00 63 1006.2
20260505004540 77 335 7.0 14.0 0.00 0.00 0.00 62 1006.3
20260505003048 77 336 8.0 18.0 0.00 0.00 0.00 61 1006.3
20260505001530 78 323 9.0 18.0 0.00 0.00 0.00 61 1006.5
20260505000034 78 324 9.0 22.0 0.00 0.00 0.00 60 1006.5
20260504234527 78 327 9.0 14.0 0.00 0.00 0.00 60 1006.7
20260504233029 78 360 6.0 15.0 0.00 0.00 0.00 60 1006.7
20260504231530 79 245 7.0 13.0 0.00 0.00 0.00 59 1006.8
20260504230027 80 352 10.0 24.0 0.00 0.00 0.00 57 1007.0
20260504224528 80 327 7.0 18.0 0.00 0.00 0.00 58 1007.2
20260504223031 80 319 10.0 19.0 0.00 0.00 0.00 57 1007.0
20260504221526 80 288 8.0 20.0 0.00 0.00 0.00 57 1007.2
20260504220031 80 301 8.0 23.0 0.00 0.00 0.00 57 1007.4
20260504214531 80 325 9.0 18.0 0.00 0.00 0.00 56 1007.8
20260504213029 80 352 8.0 19.0 0.00 0.00 0.00 56 1007.8
20260504211536 80 320 10.0 24.0 0.00 0.00 0.00 55 1008.1
20260504210026 80 342 8.0 17.0 0.00 0.00 0.00 56 1008.2
20260504204532 80 330 7.0 18.0 0.00 0.00 0.00 55 1008.7
20260504203029 80 301 7.0 21.0 0.00 0.00 0.00 53 1009.1
20260504201529 80 290 9.0 19.0 0.00 0.00 0.00 52 1009.3
20260504200029 80 360 9.0 20.0 0.00 0.00 0.00 52 1009.5
20260504194528 79 351 9.0 17.0 0.00 0.00 0.00 53 1009.9
20260504193030 79 318 9.0 19.0 0.00 0.00 0.00 52 1009.9
20260504191529 79 290 9.0 18.0 0.00 0.00 0.00 51 1010.3
20260504190028 79 331 8.0 18.0 0.00 0.00 0.00 51 1010.3
20260504184541 79 288 7.0 17.0 0.00 0.00 0.00 49 1010.6
20260504183029 78 360 9.0 21.0 0.00 0.00 0.00 49 1010.9
20260504181531 78 360 8.0 16.0 0.00 0.00 0.00 50 1011.1
20260504180028 78 351 9.0 20.0 0.00 0.00 0.00 50 1011.3
20260504174529 76 360 9.0 19.0 0.00 0.00 0.00 50 1011.6